Skip Page Navigation
NASA JPL Caltech
NASA Logo - Jet Propulsion Laboratory + View the NASA Portal
+ Near-Earth Object (NEO) Program
Search JPL
JPL Home Earth Solar System Stars & Galaxies Technology
JPL Solar System Dynamics
BODIES ORBITS EPHEMERIDES TOOLS PHYSICAL DATA DISCOVERY FAQ SITE MAP
JPL Small-Body Database Browser
Search: [ help ]  
16549 (1991 RE10)
Classification: Main-belt Asteroid          SPK-ID: 2016549
Ephemeris | Orbit Diagram | Orbital Elements | Physical Parameters | Discovery Circumstances ]

[ show orbit diagram ]
Orbital Elements at Epoch 2456400.5 (2013-Apr-18.0) TDB
Reference: MPO234928 (heliocentric ecliptic J2000)
 Element Value Uncertainty (1-sigma)   Units 
e 0.2020381 n/a  
a 2.7818822 n/a AU
q 2.2198360 n/a AU
i 6.84203 n/a deg
node 307.38464 n/a deg
peri 129.51877 n/a deg
M 185.86541 n/a deg
tp 2457220.2644312
(2015-Jul-16.76443120)
n/a JED
period 1694.7534388
4.64
n/a
n/a
d
yr
n 0.21242028 n/a deg/d
Q 3.3439284 n/a AU
  Orbit Determination Parameters
   # obs. used (total)      754  
   first obs. used      1951-??-??  
   last obs. used      2012-07-30  
   # oppositions      16  
   planetary ephem.      DE403  
   condition code      0  
   fit RMS      0.56  
   data source      MPC:mpn  
   producer      MPCLINUX  

Additional Information
 T_jup = 3.292 

Ephemeris | Orbit Diagram | Orbital Elements | Physical Parameters | Discovery Circumstances ]

Physical Parameter Table
Parameter Symbol Value Units Sigma Reference Notes
absolute magnitude H 13.1 mag n/a PDS3 (MPO 2866)  

16549 (1991 RE10)          Discovered 1991-Sep-12 by Holt, H. E. at Palomar (675)
Reference: 20000913/Numbers.arcLast Updated: 2004-04-19

Alternate Designations
 1991 RE10 = 1996 VN1 
Ephemeris | Orbit Diagram | Orbital Elements | Physical Parameters | Discovery Circumstances ]
ABOUT SSD CREDITS/AWARDS PRIVACY/COPYRIGHT GLOSSARY LINKS
FirstGov 2013-Jun-18 07:54 UT
(server date/time)  
NASA Home Page
Site Manager:   Donald K. Yeomans
Webmaster  Alan B. Chamberlin